| time (UTC) | temp F | wind direction | speed MPH | gust MPH | rain 1hr in | rain 24hr in | rain mn in | humidity % | barometer mb |
| 20260504050311 | 45 | 241 | 0.0 | 0.0 | 0.00 | 0.00 | 0.00 | 85 | 1016.3 |
| 20260504045808 | 45 | 241 | 0.0 | 0.0 | 0.00 | 0.00 | 0.00 | 86 | 1016.2 |
| 20260504045308 | 46 | 241 | 0.0 | 0.0 | 0.00 | 0.00 | 0.00 | 85 | 1016.1 |
| 20260504044806 | 46 | 241 | 0.0 | 0.0 | 0.00 | 0.00 | 0.00 | 85 | 1016.3 |
| 20260504044303 | 46 | 241 | 0.0 | 0.0 | 0.00 | 0.00 | 0.00 | 85 | 1016.3 |
| 20260504043800 | 46 | 241 | 0.0 | 0.0 | 0.00 | 0.00 | 0.00 | 85 | 1016.2 |
| 20260504043257 | 46 | 241 | 0.0 | 0.0 | 0.00 | 0.00 | 0.00 | 86 | 1016.2 |
| 20260504042755 | 46 | 241 | 0.0 | 0.0 | 0.00 | 0.00 | 0.00 | 85 | 1016.1 |
| 20260504042251 | 46 | 241 | 0.0 | 0.0 | 0.00 | 0.00 | 0.00 | 86 | 1016.2 |
| 20260504041747 | 46 | 241 | 0.0 | 0.0 | 0.00 | 0.00 | 0.00 | 87 | 1016.1 |
| 20260504041243 | 46 | 241 | 0.0 | 0.0 | 0.00 | 0.00 | 0.00 | 87 | 1016.1 |
| 20260504040739 | 46 | 241 | 0.0 | 0.0 | 0.00 | 0.00 | 0.00 | 86 | 1016.4 |
| 20260504040238 | 46 | 241 | 0.0 | 0.0 | 0.00 | 0.00 | 0.00 | 83 | 1016.3 |
| 20260504035733 | 47 | 241 | 0.0 | 0.0 | 0.00 | 0.00 | 0.00 | 82 | 1016.4 |
| 20260504035231 | 47 | 241 | 0.0 | 0.0 | 0.00 | 0.00 | 0.00 | 83 | 1016.3 |
| 20260504034728 | 47 | 241 | 0.0 | 0.0 | 0.00 | 0.00 | 0.00 | 82 | 1016.4 |
| 20260504034225 | 47 | 241 | 0.0 | 0.0 | 0.00 | 0.00 | 0.00 | 80 | 1016.3 |
| 20260504033723 | 47 | 241 | 0.0 | 0.0 | 0.00 | 0.00 | 0.00 | 80 | 1016.4 |
| 20260504033220 | 47 | 241 | 0.0 | 0.0 | 0.00 | 0.00 | 0.00 | 81 | 1016.4 |
| 20260504032717 | 47 | 241 | 0.0 | 0.0 | 0.00 | 0.00 | 0.00 | 80 | 1016.3 |
| 20260504032214 | 47 | 241 | 0.0 | 0.0 | 0.00 | 0.00 | 0.00 | 81 | 1016.3 |
| 20260504031711 | 47 | 241 | 0.0 | 0.0 | 0.00 | 0.00 | 0.00 | 79 | 1016.4 |
| 20260504031208 | 48 | 241 | 0.0 | 0.0 | 0.00 | 0.00 | 0.00 | 81 | 1016.4 |
| 20260504030704 | 48 | 241 | 0.0 | 0.0 | 0.00 | 0.00 | 0.00 | 80 | 1016.5 |
| 20260504030201 | 48 | 241 | 0.0 | 0.0 | 0.00 | 0.00 | 0.00 | 78 | 1016.4 |
| 20260504025658 | 47 | 240 | 0.0 | 0.0 | 0.00 | 0.00 | 0.00 | 80 | 1016.3 |
| 20260504025154 | 47 | 240 | 0.0 | 0.0 | 0.00 | 0.00 | 0.00 | 82 | 1016.3 |
| 20260504024652 | 47 | 240 | 0.0 | 0.0 | 0.00 | 0.00 | 0.00 | 80 | 1016.3 |
| 20260504024148 | 47 | 240 | 0.0 | 0.0 | 0.00 | 0.00 | 0.00 | 81 | 1016.4 |
| 20260504023645 | 47 | 240 | 0.0 | 0.0 | 0.00 | 0.00 | 0.00 | 81 | 1016.3 |
| 20260504023141 | 47 | 240 | 0.0 | 0.0 | 0.00 | 0.00 | 0.00 | 81 | 1016.4 |
| 20260504022637 | 47 | 240 | 0.0 | 0.0 | 0.00 | 0.00 | 0.00 | 82 | 1016.4 |
| 20260504022133 | 47 | 240 | 0.0 | 0.0 | 0.00 | 0.00 | 0.00 | 81 | 1016.6 |
| 20260504021631 | 47 | 240 | 0.0 | 0.0 | 0.00 | 0.00 | 0.00 | 81 | 1016.4 |
| 20260504021127 | 47 | 240 | 0.0 | 0.0 | 0.00 | 0.00 | 0.00 | 80 | 1016.3 |
| 20260504020625 | 47 | 240 | 0.0 | 0.0 | 0.00 | 0.00 | 0.00 | 82 | 1016.3 |
| 20260504020121 | 48 | 240 | 0.0 | 0.0 | 0.00 | 0.00 | 0.00 | 82 | 1016.3 |
| 20260504015617 | 48 | 240 | 0.0 | 0.0 | 0.00 | 0.00 | 0.00 | 81 | 1016.3 |
| 20260504015114 | 48 | 240 | 0.0 | 0.0 | 0.00 | 0.00 | 0.00 | 82 | 1016.4 |
| 20260504014610 | 48 | 240 | 0.0 | 0.0 | 0.00 | 0.00 | 0.00 | 80 | 1016.2 |
| 20260504014107 | 49 | 240 | 0.0 | 0.0 | 0.00 | 0.00 | 0.00 | 78 | 1016.3 |
| 20260504013604 | 49 | 240 | 0.0 | 0.0 | 0.00 | 0.00 | 0.00 | 76 | 1016.3 |
| 20260504013101 | 49 | 240 | 0.0 | 0.0 | 0.00 | 0.00 | 0.00 | 76 | 1016.1 |
| 20260504012558 | 49 | 240 | 0.0 | 0.0 | 0.00 | 0.00 | 0.00 | 76 | 1016.3 |
| 20260504012056 | 49 | 254 | 0.0 | 0.0 | 0.00 | 0.00 | 0.00 | 75 | 1016.4 |
| 20260504011553 | 49 | 254 | 0.0 | 0.0 | 0.00 | 0.00 | 0.00 | 74 | 1016.1 |
| 20260504011049 | 49 | 254 | 0.0 | 0.0 | 0.00 | 0.00 | 0.00 | 75 | 1016.4 |
| 20260504010545 | 49 | 254 | 0.0 | 0.0 | 0.00 | 0.00 | 0.00 | 73 | 1016.3 |
| 20260504010041 | 49 | 254 | 0.0 | 0.0 | 0.00 | 0.00 | 0.00 | 73 | 1016.5 |
| 20260504005538 | 49 | 254 | 0.0 | 0.0 | 0.00 | 0.00 | 0.00 | 72 | 1016.4 |
| 20260504005035 | 50 | 255 | 0.0 | 0.0 | 0.00 | 0.00 | 0.00 | 75 | 1016.3 |
| 20260504004533 | 50 | 261 | 0.0 | 0.0 | 0.00 | 0.00 | 0.00 | 71 | 1016.2 |
| 20260504004030 | 50 | 261 | 0.0 | 0.0 | 0.00 | 0.00 | 0.00 | 71 | 1016.2 |
| 20260504003526 | 50 | 230 | 0.0 | 0.0 | 0.00 | 0.00 | 0.00 | 69 | 1016.1 |
| 20260504003023 | 51 | 267 | 0.0 | 0.0 | 0.00 | 0.00 | 0.00 | 69 | 1016.0 |
| 20260504002520 | 51 | 228 | 0.0 | 0.0 | 0.00 | 0.00 | 0.00 | 67 | 1015.8 |
| 20260504002017 | 51 | 291 | 0.0 | 0.0 | 0.00 | 0.00 | 0.00 | 62 | 1016.1 |
| 20260504001515 | 52 | 292 | 0.0 | 1.0 | 0.00 | 0.00 | 0.00 | 64 | 1016.0 |
| 20260504001011 | 53 | 292 | 0.0 | 0.0 | 0.00 | 0.00 | 0.00 | 61 | 1015.8 |
| 20260504000508 | 54 | 293 | 0.0 | 0.0 | 0.00 | 0.00 | 0.00 | 59 | 1015.8 |
| 20260504000005 | 54 | 298 | 0.0 | 1.0 | 0.00 | 0.00 | 0.00 | 51 | 1016.0 |
| 20260503235504 | 55 | 350 | 0.0 | 0.0 | 0.00 | 0.00 | 0.00 | 48 | 1016.1 |
| 20260503235000 | 55 | 312 | 0.0 | 1.0 | 0.00 | 0.00 | 0.00 | 47 | 1016.3 |
| 20260503234457 | 55 | 312 | 0.0 | 0.0 | 0.00 | 0.00 | 0.00 | 47 | 1016.1 |
| 20260503233956 | 55 | 313 | 0.0 | 1.0 | 0.00 | 0.00 | 0.00 | 48 | 1016.2 |
| 20260503233452 | 55 | 289 | 0.0 | 2.0 | 0.00 | 0.00 | 0.00 | 49 | 1016.0 |
| 20260503232948 | 55 | 320 | 0.0 | 0.0 | 0.00 | 0.00 | 0.00 | 49 | 1016.2 |
| 20260503232445 | 56 | 289 | 0.0 | 1.0 | 0.00 | 0.00 | 0.00 | 43 | 1016.1 |
| 20260503231943 | 57 | 7 | 0.0 | 0.0 | 0.00 | 0.00 | 0.00 | 40 | 1016.1 |
| 20260503231440 | 57 | 337 | 0.0 | 3.0 | 0.00 | 0.00 | 0.00 | 38 | 1016.2 |
| 20260503230937 | 57 | 324 | 1.0 | 1.0 | 0.00 | 0.00 | 0.00 | 39 | 1016.3 |
| 20260503230433 | 57 | 253 | 2.0 | 3.0 | 0.00 | 0.00 | 0.00 | 39 | 1016.1 |
| 20260503225931 | 58 | 59 | 2.0 | 6.0 | 0.00 | 0.00 | 0.00 | 36 | 1016.3 |
| 20260503225428 | 58 | 263 | 4.0 | 7.0 | 0.00 | 0.00 | 0.00 | 40 | 1016.4 |
| 20260503224923 | 58 | 17 | 0.0 | 1.0 | 0.00 | 0.00 | 0.00 | 36 | 1016.4 |
| 20260503224420 | 60 | 329 | 1.0 | 1.0 | 0.00 | 0.00 | 0.00 | 35 | 1016.3 |
| 20260503223918 | 60 | 309 | 2.0 | 4.0 | 0.00 | 0.00 | 0.00 | 38 | 1016.4 |
| 20260503223416 | 60 | 240 | 1.0 | 4.0 | 0.00 | 0.00 | 0.00 | 34 | 1016.4 |
| 20260503222916 | 60 | 294 | 1.0 | 3.0 | 0.00 | 0.00 | 0.00 | 36 | 1016.5 |
| 20260503222415 | 61 | 320 | 2.0 | 4.0 | 0.00 | 0.00 | 0.00 | 33 | 1016.5 |
| 20260503221913 | 61 | 269 | 1.0 | 3.0 | 0.00 | 0.00 | 0.00 | 34 | 1016.5 |
| 20260503221411 | 61 | 266 | 4.0 | 4.0 | 0.00 | 0.00 | 0.00 | 34 | 1016.4 |
| 20260503220907 | 60 | 317 | 3.0 | 7.0 | 0.00 | 0.00 | 0.00 | 34 | 1016.5 |
| 20260503220404 | 61 | 303 | 3.0 | 4.0 | 0.00 | 0.00 | 0.00 | 34 | 1016.5 |
| 20260503215901 | 61 | 260 | 1.0 | 3.0 | 0.00 | 0.00 | 0.00 | 34 | 1016.5 |
| 20260503215358 | 62 | 71 | 2.0 | 4.0 | 0.00 | 0.00 | 0.00 | 33 | 1016.3 |
| 20260503214855 | 61 | 158 | 1.0 | 7.0 | 0.00 | 0.00 | 0.00 | 36 | 1016.2 |
| 20260503214353 | 61 | 295 | 2.0 | 4.0 | 0.00 | 0.00 | 0.00 | 35 | 1016.3 |
| 20260503213850 | 61 | 302 | 5.0 | 7.0 | 0.00 | 0.00 | 0.00 | 34 | 1016.3 |
| 20260503213348 | 61 | 305 | 3.0 | 4.0 | 0.00 | 0.00 | 0.00 | 33 | 1016.4 |
| 20260503212844 | 61 | 263 | 1.0 | 6.0 | 0.00 | 0.00 | 0.00 | 38 | 1016.5 |
| 20260503212342 | 61 | 299 | 4.0 | 6.0 | 0.00 | 0.00 | 0.00 | 35 | 1016.4 |
| 20260503211839 | 61 | 308 | 3.0 | 4.0 | 0.00 | 0.00 | 0.00 | 37 | 1016.3 |
| 20260503211336 | 60 | 160 | 6.0 | 8.0 | 0.00 | 0.00 | 0.00 | 33 | 1016.3 |
| 20260503210831 | 60 | 248 | 2.0 | 6.0 | 0.00 | 0.00 | 0.00 | 33 | 1016.3 |
| 20260503210329 | 60 | 323 | 2.0 | 10.0 | 0.00 | 0.00 | 0.00 | 36 | 1016.4 |
| 20260503205823 | 61 | 329 | 3.0 | 6.0 | 0.00 | 0.00 | 0.00 | 32 | 1016.6 |
| 20260503205320 | 61 | 28 | 2.0 | 7.0 | 0.00 | 0.00 | 0.00 | 37 | 1016.6 |
| 20260503204817 | 62 | 97 | 0.0 | 6.0 | 0.00 | 0.00 | 0.00 | 34 | 1016.5 |
| 20260503204315 | 61 | 332 | 4.0 | 8.0 | 0.00 | 0.00 | 0.00 | 36 | 1016.6 |
| 20260503203812 | 61 | 106 | 1.0 | 6.0 | 0.00 | 0.00 | 0.00 | 34 | 1016.8 |
| 20260503203309 | 60 | 276 | 0.0 | 3.0 | 0.00 | 0.00 | 0.00 | 34 | 1016.8 |
| 20260503202806 | 62 | 74 | 6.0 | 7.0 | 0.00 | 0.00 | 0.00 | 32 | 1016.9 |
| 20260503202304 | 62 | 336 | 2.0 | 3.0 | 0.00 | 0.00 | 0.00 | 34 | 1016.9 |
| 20260503201801 | 60 | 297 | 3.0 | 7.0 | 0.00 | 0.00 | 0.00 | 38 | 1017.1 |
| 20260503201258 | 61 | 302 | 2.0 | 4.0 | 0.00 | 0.00 | 0.00 | 39 | 1017.0 |
| 20260503200756 | 60 | 259 | 4.0 | 7.0 | 0.00 | 0.00 | 0.00 | 34 | 1017.2 |
| 20260503200251 | 60 | 320 | 2.0 | 4.0 | 0.00 | 0.00 | 0.00 | 39 | 1017.3 |
| 20260503195749 | 59 | 133 | 1.0 | 6.0 | 0.00 | 0.00 | 0.00 | 35 | 1017.5 |
| 20260503195245 | 60 | 277 | 4.0 | 10.0 | 0.00 | 0.00 | 0.00 | 33 | 1017.5 |
| 20260503194743 | 60 | 271 | 1.0 | 7.0 | 0.00 | 0.00 | 0.00 | 40 | 1017.7 |
| 20260503194238 | 62 | 272 | 1.0 | 2.0 | 0.00 | 0.00 | 0.00 | 40 | 1017.7 |
| 20260503193735 | 62 | 304 | 3.0 | 4.0 | 0.00 | 0.00 | 0.00 | 36 | 1017.9 |
| 20260503193231 | 60 | 294 | 2.0 | 6.0 | 0.00 | 0.00 | 0.00 | 37 | 1017.9 |
| 20260503192727 | 61 | 159 | 6.0 | 8.0 | 0.00 | 0.00 | 0.00 | 34 | 1017.9 |
| 20260503192222 | 60 | 203 | 2.0 | 6.0 | 0.00 | 0.00 | 0.00 | 42 | 1017.9 |
| 20260503191719 | 60 | 286 | 1.0 | 4.0 | 0.00 | 0.00 | 0.00 | 38 | 1018.0 |
| 20260503191216 | 60 | 286 | 0.0 | 1.0 | 0.00 | 0.00 | 0.00 | 37 | 1018.3 |
| 20260503190713 | 60 | 132 | 4.0 | 8.0 | 0.00 | 0.00 | 0.00 | 36 | 1018.2 |
| 20260503190210 | 59 | 335 | 3.0 | 4.0 | 0.00 | 0.00 | 0.00 | 36 | 1018.3 |
| 20260503185707 | 60 | 114 | 0.0 | 2.0 | 0.00 | 0.00 | 0.00 | 38 | 1018.3 |
| 20260503185202 | 59 | 284 | 1.0 | 4.0 | 0.00 | 0.00 | 0.00 | 37 | 1018.4 |
| 20260503184657 | 59 | 314 | 2.0 | 4.0 | 0.00 | 0.00 | 0.00 | 37 | 1018.4 |
| 20260503184154 | 60 | 279 | 2.0 | 6.0 | 0.00 | 0.00 | 0.00 | 36 | 1018.6 |
| 20260503183650 | 58 | 325 | 3.0 | 4.0 | 0.00 | 0.00 | 0.00 | 40 | 1018.4 |
| 20260503183148 | 58 | 157 | 1.0 | 3.0 | 0.00 | 0.00 | 0.00 | 38 | 1018.5 |
| 20260503182645 | 58 | 121 | 2.0 | 7.0 | 0.00 | 0.00 | 0.00 | 37 | 1018.9 |
| 20260503182144 | 59 | 283 | 5.0 | 6.0 | 0.00 | 0.00 | 0.00 | 37 | 1018.6 |
| 20260503181640 | 59 | 98 | 3.0 | 6.0 | 0.00 | 0.00 | 0.00 | 34 | 1018.5 |
| 20260503181137 | 58 | 127 | 1.0 | 3.0 | 0.00 | 0.00 | 0.00 | 34 | 1018.6 |
| 20260503180634 | 58 | 257 | 5.0 | 7.0 | 0.00 | 0.00 | 0.00 | 41 | 1018.9 |
| 20260503180132 | 58 | 61 | 3.0 | 7.0 | 0.00 | 0.00 | 0.00 | 42 | 1018.8 |
| 20260503175629 | 58 | 76 | 3.0 | 6.0 | 0.00 | 0.00 | 0.00 | 39 | 1018.9 |
| 20260503175126 | 57 | 123 | 2.0 | 4.0 | 0.00 | 0.00 | 0.00 | 38 | 1018.9 |
| 20260503174622 | 56 | 286 | 2.0 | 4.0 | 0.00 | 0.00 | 0.00 | 36 | 1019.0 |
| 20260503174120 | 57 | 119 | 2.0 | 7.0 | 0.00 | 0.00 | 0.00 | 37 | 1019.1 |
| 20260503173614 | 56 | 102 | 0.0 | 3.0 | 0.00 | 0.00 | 0.00 | 38 | 1019.1 |
| 20260503173111 | 58 | 12 | 1.0 | 4.0 | 0.00 | 0.00 | 0.00 | 42 | 1019.4 |
| 20260503172608 | 57 | 265 | 4.0 | 4.0 | 0.00 | 0.00 | 0.00 | 39 | 1019.4 |
| 20260503172106 | 57 | 317 | 4.0 | 7.0 | 0.00 | 0.00 | 0.00 | 37 | 1019.5 |
| 20260503171602 | 56 | 294 | 2.0 | 6.0 | 0.00 | 0.00 | 0.00 | 43 | 1019.5 |
| 20260503171059 | 56 | 239 | 0.0 | 2.0 | 0.00 | 0.00 | 0.00 | 40 | 1019.5 |
| 20260503170555 | 56 | 56 | 0.0 | 3.0 | 0.00 | 0.00 | 0.00 | 34 | 1019.7 |
| 20260503150948 | 50 | 69 | 2.0 | 6.0 | 0.00 | 0.00 | 0.00 | 51 | 1020.8 |
| 20260503150445 | 50 | 261 | 2.0 | 6.0 | 0.00 | 0.00 | 0.00 | 50 | 1020.8 |
| 20260503131338 | 45 | 279 | 2.0 | 4.0 | 0.00 | 0.00 | 0.00 | 72 | 1020.9 |
| 20260503130835 | 46 | 340 | 0.0 | 2.0 | 0.00 | 0.00 | 0.00 | 70 | 1020.8 |
| 20260503130333 | 43 | 46 | 0.0 | 2.0 | 0.00 | 0.00 | 0.00 | 78 | 1020.8 |
| 20260503110726 | 29 | 307 | 0.0 | 0.0 | 0.00 | 0.00 | 0.00 | 99 | 1020.1 |
| 20260503110224 | 29 | 308 | 0.0 | 0.0 | 0.00 | 0.00 | 0.00 | 99 | 1020.1 |
| 20260503100150 | 29 | 308 | 0.0 | 0.0 | 0.00 | 0.00 | 0.00 | 99 | 1019.3 |
| 20260503090109 | 29 | 308 | 0.0 | 0.0 | 0.00 | 0.00 | 0.00 | 99 | 1019.0 |
| 20260503081544 | 30 | 308 | 0.0 | 0.0 | 0.00 | 0.00 | 0.00 | 99 | 1019.3 |
| 20260503081042 | 30 | 308 | 0.0 | 0.0 | 0.00 | 0.00 | 0.00 | 99 | 1018.9 |
| 20260503080537 | 30 | 308 | 0.0 | 0.0 | 0.00 | 0.00 | 0.00 | 99 | 1018.8 |
| 20260503072512 | 31 | 308 | 0.0 | 0.0 | 0.00 | 0.00 | 0.00 | 98 | 1018.4 |
| 20260503072009 | 31 | 308 | 0.0 | 0.0 | 0.00 | 0.00 | 0.00 | 98 | 1018.4 |
| 20260503071506 | 31 | 308 | 0.0 | 0.0 | 0.00 | 0.00 | 0.00 | 98 | 1018.3 |
| 20260503071002 | 31 | 308 | 0.0 | 0.0 | 0.00 | 0.00 | 0.00 | 98 | 1018.3 |
| 20260503070459 | 31 | 308 | 0.0 | 0.0 | 0.00 | 0.00 | 0.00 | 98 | 1018.3 |